CDT,Max TemperatureF,Mean TemperatureF,Min TemperatureF,Max Dew PointF,MeanDew PointF,Min DewpointF,Max Humidity, Mean Humidity, Min Humidity, Max Sea Level PressureIn, Mean Sea Level PressureIn, Min Sea Level PressureIn, Max VisibilityMiles, Mean VisibilityMiles, Min VisibilityMiles, Max Wind SpeedMPH, Mean Wind SpeedMPH, Max Gust SpeedMPH,PrecipitationIn, CloudCover, Events, WindDirDegrees
2013-9-1,66,57,48,57,53,45,88,74,59,30.05,29.93,29.79,10,10,10,15,9,23,0.00,5,,323
2013-9-2,71,58,44,52,47,43,100,73,41,30.13,30.07,30.03,10,10,10,9,2,,0.00,3,,347
2013-9-3,82,62,41,57,51,39,100,71,39,30.06,30.02,29.98,10,10,2,10,2,,0.00,0,,228
2013-9-4,80,68,55,59,54,46,100,67,34,30.19,30.12,30.02,10,10,10,9,3,,0.00,0,,47
2013-9-5,82,66,51,63,53,46,88,64,36,30.23,30.16,30.06,10,10,10,13,5,17,0.00,0,,127
2013-9-6,89,76,64,66,64,61,94,70,43,30.06,29.95,29.87,10,10,10,12,5,,0.00,1,,201
2013-9-7,86,73,60,68,64,59,100,75,48,30.07,29.98,29.90,10,8,0,14,3,18,0.00,1,Fog,29
2013-9-8,66,60,53,61,55,48,100,85,59,30.10,30.01,29.89,10,9,1,14,8,17,1.19,7,Rain-Thunderstorm,114
2013-9-9,75,67,59,70,64,57,100,91,78,29.89,29.74,29.65,10,8,1,14,6,47,1.32,7,Rain-Thunderstorm,173
2013-9-10,75,68,60,64,60,57,100,84,61,29.97,29.89,29.78,10,9,0,16,6,21,0.00,4,Fog,256
2013-9-11,80,68,55,61,54,46,100,69,36,30.15,30.03,29.96,10,10,7,20,7,25,0.00,0,,279
2013-9-12,69,58,46,52,47,45,100,73,43,30.27,30.22,30.15,10,10,10,15,5,22,0.00,1,,334
2013-9-13,69,54,39,48,45,37,100,72,43,30.26,30.18,30.02,10,10,4,13,3,20,0.00,0,,177
2013-9-14,64,55,46,55,50,43,100,86,59,30.02,29.94,29.89,10,10,5,14,7,20,1.57,4,Rain,166
2013-9-15,60,50,39,54,49,39,100,85,55,30.34,30.16,29.94,10,10,3,12,5,18,0.01,5,,27
2013-9-16,64,48,33,46,40,34,100,76,37,30.38,30.31,30.19,10,10,2,14,3,,0.00,0,,152
2013-9-17,60,50,39,54,49,39,100,89,77,30.19,30.03,29.89,10,10,5,18,8,24,0.00,6,,145
2013-9-18,71,63,55,66,61,54,100,95,83,29.88,29.73,29.62,7,3,0,14,9,18,0.00,6,Fog,136
2013-9-19,69,63,57,68,61,52,100,89,60,29.83,29.73,29.62,10,6,0,17,5,25,0.28,3,Fog-Rain-Thunderstorm,261
2013-9-20,57,52,48,54,48,45,100,84,63,29.95,29.89,29.81,10,10,2,16,8,25,0.01,7,Rain,303
2013-9-21,60,48,35,45,41,36,100,79,52,30.01,29.96,29.90,10,10,10,8,4,,0.00,1,,346
2013-9-22,71,56,42,55,48,39,93,75,53,29.93,29.83,29.76,10,10,10,22,9,30,0.00,0,,122
2013-9-23,71,63,55,54,52,48,94,71,50,29.87,29.81,29.78,10,10,10,23,11,33,0.00,0,,147
2013-9-24,71,61,51,55,51,48,94,76,50,29.96,29.92,29.87,10,10,5,10,5,,0.00,0,,154
2013-9-25,71,58,44,55,50,43,100,78,50,29.94,29.89,29.82,10,8,1,17,5,24,0.00,0,,139
2013-9-26,77,65,53,59,55,48,88,69,50,29.86,29.80,29.75,10,10,10,28,14,34,0.00,2,,139
2013-9-27,73,66,59,64,60,55,94,78,68,29.83,29.77,29.70,10,10,3,21,11,28,0.14,3,Rain-Thunderstorm,166
2013-9-28,59,52,44,57,49,43,100,88,67,29.85,29.72,29.57,10,9,3,20,6,30,0.43,6,Rain,265
2013-9-29,73,56,39,46,43,37,100,65,36,29.87,29.79,29.63,10,10,10,20,7,24,0.00,0,,176
2013-9-30,75,62,50,54,50,45,82,64,44,29.62,29.58,29.54,10,10,10,13,8,22,0.00,0,,171